LOT5MC EPWA-EGCC

Flight info

Callsign LOT5MC
Flight time 2h 13m
Altitude 36000
Route LOLSI T174 INDIG L980 SUBIX DCT GARLU DCT RAVLO Y70 OTBED
Aircraft B738/M-SDE2E3FGHIRWXY/LB1

Departure

Time 2026-05-03 20:17
Airport Warsaw Chopin Airport (EPWA)

Arrival

Time 2026-05-03 22:30
Airport Manchester Airport (EGCC)
Time Latitude Longitude Altitude Speed Heading
2026-05-03 20:15 52.17665 20.96157 336 ft 19 kts 331°
2026-05-03 20:15 52.17778 20.96058 335 ft 18 kts 332°
2026-05-03 20:15 52.17888 20.95962 338 ft 18 kts 332°
2026-05-03 20:15 52.17931 20.95827 338 ft 15 kts 244°
2026-05-03 20:16 52.17885 20.95696 332 ft 13 kts 240°
2026-05-03 20:16 52.17836 20.95610 334 ft 10 kts 171°
2026-05-03 20:16 52.17748 20.95685 333 ft 37 kts 152°
2026-05-03 20:16 52.17283 20.96092 336 ft 115 kts 151°
2026-05-03 20:17 52.16378 20.96862 389 ft 175 kts 153°
2026-05-03 20:17 52.15246 20.97838 1172 ft 184 kts 154°
2026-05-03 20:17 52.14126 20.98854 2183 ft 182 kts 158°
2026-05-03 20:17 52.13074 20.99833 3213 ft 171 kts 158°
2026-05-03 20:18 52.11908 21.00248 3655 ft 182 kts 194°
2026-05-03 20:18 52.10778 20.99254 3891 ft 199 kts 231°
2026-05-03 20:18 52.10298 20.97073 4119 ft 220 kts 268°
2026-05-03 20:18 52.10456 20.94531 4565 ft 230 kts 274°
2026-05-03 20:19 52.10679 20.91922 5105 ft 235 kts 275°
2026-05-03 20:19 52.10912 20.89248 5603 ft 245 kts 275°
2026-05-03 20:19 52.11147 20.86414 5950 ft 259 kts 275°
2026-05-03 20:19 52.11382 20.83476 5974 ft 261 kts 275°
2026-05-03 20:20 52.11608 20.80542 6299 ft 263 kts 275°
2026-05-03 20:20 52.11827 20.77589 7053 ft 266 kts 275°
2026-05-03 20:20 52.12044 20.74585 7866 ft 268 kts 275°
2026-05-03 20:20 52.12259 20.71548 8638 ft 272 kts 274°
2026-05-03 20:21 52.12473 20.68467 9411 ft 276 kts 274°
2026-05-03 20:21 52.12689 20.65333 10139 ft 280 kts 274°
2026-05-03 20:21 52.12908 20.62088 10464 ft 300 kts 274°
2026-05-03 20:21 52.13143 20.58580 10646 ft 323 kts 274°
2026-05-03 20:22 52.13392 20.54842 11024 ft 338 kts 274°
2026-05-03 20:22 52.13647 20.51004 11668 ft 343 kts 275°
2026-05-03 20:22 52.13904 20.47143 12402 ft 345 kts 275°
2026-05-03 20:22 52.14161 20.43235 13141 ft 347 kts 275°
2026-05-03 20:23 52.14415 20.39354 13850 ft 351 kts 275°
2026-05-03 20:23 52.14674 20.35384 14500 ft 353 kts 275°
2026-05-03 20:23 52.14932 20.31393 15176 ft 355 kts 275°
2026-05-03 20:23 52.15191 20.27383 15845 ft 357 kts 275°
2026-05-03 20:24 52.15450 20.23357 16501 ft 359 kts 275°
2026-05-03 20:24 52.15710 20.19290 17148 ft 362 kts 275°
2026-05-03 20:24 52.15970 20.15206 17787 ft 364 kts 275°
2026-05-03 20:24 52.16229 20.11099 18406 ft 367 kts 275°
2026-05-03 20:25 52.16489 20.06957 18919 ft 370 kts 275°
2026-05-03 20:25 52.16751 20.02769 19433 ft 373 kts 275°
2026-05-03 20:25 52.17011 19.98584 19929 ft 377 kts 275°
2026-05-03 20:25 52.17275 19.94317 20406 ft 381 kts 275°
2026-05-03 20:26 52.17540 19.89998 20886 ft 384 kts 275°
2026-05-03 20:26 52.17806 19.85645 21359 ft 388 kts 275°
2026-05-03 20:26 52.18070 19.81285 21833 ft 391 kts 275°
2026-05-03 20:26 52.18337 19.76855 22293 ft 395 kts 275°
2026-05-03 20:27 52.18606 19.72365 22745 ft 398 kts 275°
2026-05-03 20:27 52.18872 19.67898 23185 ft 402 kts 275°
2026-05-03 20:27 52.19142 19.63330 23617 ft 405 kts 275°
2026-05-03 20:27 52.19411 19.58747 23974 ft 408 kts 275°
2026-05-03 20:28 52.19682 19.54117 24355 ft 411 kts 275°
2026-05-03 20:28 52.19951 19.49464 24718 ft 414 kts 275°
2026-05-03 20:28 52.20220 19.44784 25065 ft 416 kts 275°
2026-05-03 20:28 52.20490 19.40067 25410 ft 419 kts 276°
2026-05-03 20:29 52.20760 19.35311 25754 ft 422 kts 276°
2026-05-03 20:29 52.21030 19.30516 26091 ft 425 kts 276°
2026-05-03 20:29 52.21298 19.25722 26420 ft 427 kts 276°
2026-05-03 20:29 52.21562 19.20951 26738 ft 430 kts 276°
2026-05-03 20:30 52.21831 19.16067 27056 ft 432 kts 276°
2026-05-03 20:30 52.22099 19.11164 27377 ft 435 kts 276°
2026-05-03 20:30 52.22367 19.06218 27673 ft 438 kts 275°
2026-05-03 20:30 52.22634 19.01269 27963 ft 440 kts 275°
2026-05-03 20:31 52.22901 18.96257 28268 ft 442 kts 275°
2026-05-03 20:31 52.23166 18.91245 28552 ft 445 kts 275°
2026-05-03 20:31 52.23432 18.86192 28836 ft 447 kts 275°
2026-05-03 20:31 52.23695 18.81135 29105 ft 450 kts 275°
2026-05-03 20:32 52.23955 18.76098 29414 ft 451 kts 275°
2026-05-03 20:32 52.24216 18.71007 29818 ft 450 kts 276°
2026-05-03 20:32 52.24473 18.65925 30225 ft 448 kts 276°
2026-05-03 20:32 52.24728 18.60864 30551 ft 447 kts 276°
2026-05-03 20:33 52.24981 18.55799 30855 ft 447 kts 275°
2026-05-03 20:33 52.25231 18.50741 31266 ft 444 kts 275°
2026-05-03 20:33 52.25476 18.45728 31661 ft 442 kts 275°
2026-05-03 20:33 52.25720 18.40721 31978 ft 441 kts 275°
2026-05-03 20:34 52.25959 18.35743 32260 ft 441 kts 275°
2026-05-03 20:34 52.26199 18.30738 32577 ft 440 kts 275°
2026-05-03 20:34 52.26434 18.25769 32937 ft 438 kts 275°
2026-05-03 20:34 52.26663 18.20873 33265 ft 437 kts 275°
2026-05-03 20:35 52.26893 18.15921 33557 ft 437 kts 275°
2026-05-03 20:35 52.27121 18.10980 33847 ft 436 kts 275°
2026-05-03 20:35 52.27347 18.06039 34130 ft 434 kts 275°
2026-05-03 20:35 52.27567 18.01153 34565 ft 429 kts 275°
2026-05-03 20:36 52.27784 17.96316 34861 ft 427 kts 275°
2026-05-03 20:36 52.27999 17.91474 35028 ft 428 kts 275°
2026-05-03 20:36 52.28213 17.86608 35198 ft 429 kts 275°
2026-05-03 20:36 52.28423 17.81784 35414 ft 429 kts 275°
2026-05-03 20:37 52.28632 17.76935 35666 ft 427 kts 275°
2026-05-03 20:37 52.28837 17.72151 35891 ft 426 kts 275°
2026-05-03 20:37 52.29042 17.67307 35960 ft 429 kts 274°
2026-05-03 20:38 52.29451 17.57501 35968 ft 436 kts 274°
2026-05-03 20:38 52.29857 17.47563 35971 ft 442 kts 274°
2026-05-03 20:39 52.30261 17.37479 35960 ft 447 kts 274°
2026-05-03 20:39 52.30659 17.27314 35958 ft 449 kts 274°
2026-05-03 20:40 52.31050 17.17103 35952 ft 450 kts 274°
2026-05-03 20:40 52.31432 17.06875 35949 ft 451 kts 274°
2026-05-03 20:41 52.31805 16.96659 35947 ft 450 kts 273°
2026-05-03 20:41 52.32167 16.86520 35944 ft 448 kts 273°
2026-05-03 20:42 52.32521 16.76349 35936 ft 447 kts 273°
2026-05-03 20:42 52.32866 16.66187 35938 ft 446 kts 273°
2026-05-03 20:43 52.33200 16.56100 35937 ft 445 kts 273°
2026-05-03 20:43 52.33524 16.46055 35944 ft 444 kts 272°
2026-05-03 20:44 52.33840 16.35965 35927 ft 443 kts 272°
2026-05-03 20:44 52.34148 16.25897 35935 ft 443 kts 272°
2026-05-03 20:45 52.34446 16.15839 35928 ft 442 kts 272°
2026-05-03 20:45 52.34736 16.05794 35931 ft 442 kts 272°
2026-05-03 20:46 52.35017 15.95735 35926 ft 442 kts 272°
2026-05-03 20:46 52.35287 15.85774 35928 ft 441 kts 272°
2026-05-03 20:47 52.35551 15.75736 35935 ft 441 kts 272°
2026-05-03 20:47 52.35806 15.65708 35928 ft 441 kts 271°
2026-05-03 20:48 52.36052 15.55681 35930 ft 441 kts 271°
2026-05-03 20:48 52.36290 15.45661 35923 ft 441 kts 271°
2026-05-03 20:49 52.36519 15.35639 35911 ft 440 kts 271°
2026-05-03 20:49 52.36739 15.25689 35914 ft 440 kts 271°
2026-05-03 20:50 52.36951 15.15672 35909 ft 440 kts 271°
2026-05-03 20:50 52.37154 15.05670 35908 ft 440 kts 271°
2026-05-03 20:51 52.37350 14.95665 35904 ft 440 kts 270°
2026-05-03 20:51 52.37506 14.87329 35919 ft 440 kts 270°
2026-05-03 20:52 52.37714 14.75692 35908 ft 439 kts 270°
2026-05-03 20:52 52.37885 14.65704 35906 ft 439 kts 270°
2026-05-03 20:53 52.38153 14.57378 35891 ft 441 kts 277°
2026-05-03 20:53 52.39518 14.47569 35897 ft 442 kts 282°
2026-05-03 20:54 52.40976 14.37793 35901 ft 442 kts 282°
2026-05-03 20:54 52.43107 14.23090 35905 ft 442 kts 281°
2026-05-03 20:55 52.44500 14.13272 35908 ft 442 kts 281°
2026-05-03 20:55 52.45883 14.03441 35919 ft 442 kts 281°
2026-05-03 20:56 52.47258 13.93609 35904 ft 442 kts 281°
2026-05-03 20:56 52.48627 13.83761 35907 ft 442 kts 280°
2026-05-03 20:57 52.49985 13.73920 35910 ft 442 kts 280°
2026-05-03 20:57 52.51325 13.64150 35911 ft 442 kts 280°
2026-05-03 20:58 52.52666 13.54312 35923 ft 441 kts 280°
2026-05-03 20:58 52.54001 13.44447 35910 ft 441 kts 280°
2026-05-03 20:59 52.55324 13.34605 35911 ft 441 kts 280°
2026-05-03 20:59 52.56640 13.24751 35907 ft 441 kts 279°
2026-05-03 21:00 52.57728 13.16547 35907 ft 441 kts 279°
2026-05-03 21:00 52.59237 13.05097 35917 ft 441 kts 279°
2026-05-03 21:01 52.60528 12.95224 35909 ft 441 kts 279°
2026-05-03 21:01 52.61809 12.85364 35896 ft 441 kts 279°
2026-05-03 21:02 52.63083 12.75486 35898 ft 441 kts 279°
2026-05-03 21:02 52.64348 12.65606 35902 ft 441 kts 279°
2026-05-03 21:03 52.65603 12.55732 35915 ft 441 kts 278°
2026-05-03 21:03 52.66843 12.45912 35905 ft 441 kts 278°
2026-05-03 21:04 52.68083 12.36025 35903 ft 440 kts 278°
2026-05-03 21:04 52.69313 12.26145 35907 ft 440 kts 278°
2026-05-03 21:05 52.70535 12.16252 35909 ft 440 kts 278°
2026-05-03 21:05 52.71747 12.06368 35919 ft 440 kts 278°
2026-05-03 21:06 52.72954 11.96454 35909 ft 440 kts 278°
2026-05-03 21:06 52.74153 11.86536 35910 ft 440 kts 278°
2026-05-03 21:07 52.75343 11.76616 35909 ft 440 kts 277°
2026-05-03 21:07 52.76523 11.66710 35907 ft 440 kts 277°
2026-05-03 21:08 52.77688 11.56844 35915 ft 440 kts 277°
2026-05-03 21:08 52.78854 11.46907 35908 ft 441 kts 277°
2026-05-03 21:09 52.80014 11.36936 35897 ft 441 kts 277°
2026-05-03 21:09 52.81165 11.26970 35902 ft 441 kts 277°
2026-05-03 21:10 52.82308 11.17009 35913 ft 441 kts 277°
2026-05-03 21:10 52.83234 11.07072 35916 ft 438 kts 271°
2026-05-03 21:11 52.83659 10.96981 35911 ft 437 kts 270°
2026-05-03 21:11 52.84019 10.87010 35916 ft 437 kts 270°
2026-05-03 21:12 52.84408 10.76950 35918 ft 437 kts 270°
2026-05-03 21:12 52.84814 10.66908 35916 ft 437 kts 270°
2026-05-03 21:13 52.85220 10.56852 35921 ft 438 kts 270°
2026-05-03 21:13 52.85620 10.46776 35914 ft 438 kts 270°
2026-05-03 21:14 52.86008 10.36775 35912 ft 438 kts 270°
2026-05-03 21:14 52.86388 10.26726 35939 ft 438 kts 269°
2026-05-03 21:15 52.86760 10.16666 35938 ft 438 kts 269°
2026-05-03 21:15 52.87124 10.06604 35944 ft 438 kts 269°
2026-05-03 21:16 52.87480 9.96533 35933 ft 438 kts 269°
2026-05-03 21:16 52.87824 9.86530 35932 ft 438 kts 269°
2026-05-03 21:17 52.88108 9.78103 35926 ft 437 kts 269°
2026-05-03 21:17 52.88492 9.66419 35922 ft 437 kts 269°
2026-05-03 21:18 52.88813 9.56341 35913 ft 437 kts 269°
2026-05-03 21:18 52.89125 9.46287 35917 ft 437 kts 269°
2026-05-03 21:19 52.89429 9.36228 35915 ft 437 kts 269°
2026-05-03 21:19 52.89724 9.26164 35917 ft 437 kts 269°
2026-05-03 21:20 52.90010 9.16155 35914 ft 437 kts 269°
2026-05-03 21:20 52.90287 9.06120 35922 ft 437 kts 268°
2026-05-03 21:21 52.90557 8.96054 35915 ft 437 kts 268°
2026-05-03 21:21 52.90819 8.85980 35914 ft 437 kts 268°
2026-05-03 21:22 52.91071 8.75922 35913 ft 437 kts 268°
2026-05-03 21:22 52.91315 8.65868 35914 ft 437 kts 268°
2026-05-03 21:23 52.91551 8.55800 35921 ft 437 kts 268°
2026-05-03 21:23 52.91777 8.45801 35918 ft 437 kts 268°
2026-05-03 21:24 52.91996 8.35732 35918 ft 437 kts 268°
2026-05-03 21:24 52.92206 8.25658 35918 ft 437 kts 268°
2026-05-03 21:25 52.92408 8.15592 35918 ft 437 kts 268°
2026-05-03 21:25 52.92601 8.05540 35928 ft 437 kts 268°
2026-05-03 21:26 52.92785 7.95462 35923 ft 437 kts 268°
2026-05-03 21:26 52.92961 7.85443 35920 ft 437 kts 267°
2026-05-03 21:27 52.93128 7.75370 35918 ft 437 kts 267°
2026-05-03 21:27 52.93288 7.65295 35918 ft 437 kts 267°
2026-05-03 21:28 52.93439 7.55217 35926 ft 437 kts 267°
2026-05-03 21:28 52.93581 7.45148 35918 ft 437 kts 267°
2026-05-03 21:29 52.93714 7.35072 35919 ft 436 kts 267°
2026-05-03 21:29 52.93839 7.25018 35914 ft 436 kts 267°
2026-05-03 21:30 52.93956 7.14957 35918 ft 436 kts 267°
2026-05-03 21:30 52.94063 7.04974 35923 ft 436 kts 267°
2026-05-03 21:31 52.94162 6.94922 35922 ft 436 kts 267°
2026-05-03 21:31 52.94253 6.84851 35915 ft 436 kts 267°
2026-05-03 21:32 52.94336 6.74800 35912 ft 436 kts 267°
2026-05-03 21:32 52.94410 6.64724 35911 ft 436 kts 267°
2026-05-03 21:33 52.94475 6.54674 35928 ft 437 kts 267°
2026-05-03 21:33 52.94532 6.44581 35924 ft 438 kts 267°
2026-05-03 21:34 52.94581 6.34544 35920 ft 438 kts 267°
2026-05-03 21:34 52.94621 6.24427 35917 ft 438 kts 267°
2026-05-03 21:35 52.94653 6.14305 35922 ft 438 kts 267°
2026-05-03 21:35 52.94676 6.04198 35931 ft 439 kts 267°
2026-05-03 21:36 52.94688 5.95787 35928 ft 439 kts 267°
2026-05-03 21:36 52.94696 5.83985 35924 ft 440 kts 267°
2026-05-03 21:37 52.94694 5.75479 35925 ft 440 kts 267°
2026-05-03 21:37 52.94684 5.65373 35926 ft 440 kts 266°
2026-05-03 21:38 52.94666 5.55226 35938 ft 440 kts 266°
2026-05-03 21:38 52.94639 5.45025 35925 ft 441 kts 266°
2026-05-03 21:39 52.94603 5.34864 35919 ft 441 kts 266°
2026-05-03 21:39 52.94559 5.24821 35933 ft 440 kts 266°
2026-05-03 21:40 52.94506 5.14657 35937 ft 440 kts 266°
2026-05-03 21:40 52.94444 5.04505 35957 ft 440 kts 266°
2026-05-03 21:41 52.94373 4.94350 35942 ft 440 kts 266°
2026-05-03 21:41 52.94294 4.84125 35940 ft 440 kts 266°
2026-05-03 21:42 52.94206 4.73981 35947 ft 440 kts 266°
2026-05-03 21:42 52.94110 4.63823 35910 ft 440 kts 266°
2026-05-03 21:43 52.94005 4.53758 35913 ft 440 kts 266°
2026-05-03 21:43 52.93892 4.43592 35915 ft 440 kts 266°
2026-05-03 21:44 52.93769 4.33435 35914 ft 440 kts 266°
2026-05-03 21:44 52.93638 4.23300 35920 ft 440 kts 266°
2026-05-03 21:45 52.93499 4.13163 35918 ft 440 kts 265°
2026-05-03 21:45 52.93351 4.03020 35938 ft 440 kts 265°
2026-05-03 21:46 52.93194 3.92871 35924 ft 441 kts 265°
2026-05-03 21:46 52.93030 3.82796 35925 ft 441 kts 265°
2026-05-03 21:47 52.92855 3.72598 35938 ft 442 kts 265°
2026-05-03 21:47 52.92672 3.62450 35928 ft 442 kts 265°
2026-05-03 21:48 52.92479 3.52226 35941 ft 443 kts 265°
2026-05-03 21:48 52.92279 3.42069 35926 ft 444 kts 265°
2026-05-03 21:49 52.92070 3.31870 35920 ft 444 kts 265°
2026-05-03 21:49 52.91851 3.21611 35913 ft 445 kts 265°
2026-05-03 21:50 52.92061 3.11365 35900 ft 450 kts 277°
2026-05-03 21:50 52.93414 3.01223 35930 ft 451 kts 279°
2026-05-03 21:51 52.94801 2.91112 35916 ft 452 kts 279°
2026-05-03 21:51 52.96150 2.80944 35916 ft 452 kts 278°
2026-05-03 21:52 52.97474 2.70737 35915 ft 452 kts 278°
2026-05-03 21:52 52.98769 2.60647 35916 ft 452 kts 278°
2026-05-03 21:53 53.00069 2.50448 35924 ft 452 kts 278°
2026-05-03 21:53 53.01355 2.40302 35915 ft 452 kts 278°
2026-05-03 21:54 53.02641 2.30072 35909 ft 452 kts 278°
2026-05-03 21:54 53.03919 2.19841 35910 ft 452 kts 278°
2026-05-03 21:55 53.05181 2.09665 35913 ft 452 kts 278°
2026-05-03 21:55 53.06441 1.99437 35928 ft 452 kts 278°
2026-05-03 21:56 53.07697 1.89173 35921 ft 453 kts 278°
2026-05-03 21:56 53.08948 1.78883 35920 ft 453 kts 278°
2026-05-03 21:57 53.10188 1.68598 35918 ft 453 kts 278°
2026-05-03 21:57 53.11419 1.58310 35923 ft 453 kts 278°
2026-05-03 21:58 53.12026 1.53226 35905 ft 442 kts 278°
2026-05-03 21:58 53.12608 1.48331 35903 ft 432 kts 278°
2026-05-03 21:58 53.13759 1.38570 35926 ft 428 kts 277°
2026-05-03 21:59 53.14894 1.28837 35930 ft 428 kts 277°
2026-05-03 21:59 53.16022 1.19105 35931 ft 427 kts 277°
2026-05-03 22:00 53.17149 1.09307 35582 ft 436 kts 277°
2026-05-03 22:00 53.17713 1.04382 35303 ft 436 kts 277°
2026-05-03 22:00 53.18286 0.99367 34974 ft 434 kts 277°
2026-05-03 22:01 53.18840 0.94507 34644 ft 430 kts 277°
2026-05-03 22:01 53.19394 0.89617 34321 ft 429 kts 277°
2026-05-03 22:01 53.19944 0.84743 34000 ft 429 kts 277°
2026-05-03 22:01 53.20494 0.79845 33628 ft 429 kts 277°
2026-05-03 22:02 53.21040 0.74958 33252 ft 428 kts 276°
2026-05-03 22:02 53.21584 0.70081 32879 ft 428 kts 276°
2026-05-03 22:02 53.22127 0.65202 32510 ft 427 kts 276°
2026-05-03 22:02 53.22666 0.60325 32144 ft 427 kts 276°
2026-05-03 22:03 53.23202 0.55461 31790 ft 426 kts 276°
2026-05-03 22:03 53.23733 0.50646 31444 ft 426 kts 276°
2026-05-03 22:03 53.24266 0.45776 31089 ft 426 kts 276°
2026-05-03 22:03 53.24798 0.40887 30741 ft 427 kts 276°
2026-05-03 22:04 53.25325 0.36000 30421 ft 427 kts 276°
2026-05-03 22:04 53.25847 0.31128 30143 ft 423 kts 276°
2026-05-03 22:04 53.26362 0.26295 29893 ft 425 kts 276°
2026-05-03 22:04 53.26881 0.21400 29611 ft 431 kts 276°
2026-05-03 22:05 53.27405 0.16447 29323 ft 433 kts 276°
2026-05-03 22:05 53.27923 0.11556 29043 ft 433 kts 276°
2026-05-03 22:05 53.29008 0.01594 28834 ft 436 kts 279°
2026-05-03 22:06 53.29740 -0.03270 28251 ft 441 kts 282°
2026-05-03 22:06 53.30586 -0.08191 27806 ft 439 kts 283°
2026-05-03 22:06 53.31464 -0.13090 27348 ft 434 kts 284°
2026-05-03 22:06 53.32327 -0.17908 26889 ft 429 kts 284°
2026-05-03 22:07 53.33170 -0.22684 26461 ft 427 kts 284°
2026-05-03 22:07 53.33984 -0.27387 26038 ft 426 kts 284°
2026-05-03 22:07 53.34793 -0.32137 25608 ft 424 kts 284°
2026-05-03 22:07 53.35594 -0.36884 25179 ft 423 kts 284°
2026-05-03 22:08 53.36377 -0.41558 24754 ft 422 kts 284°
2026-05-03 22:08 53.37165 -0.46282 24328 ft 420 kts 284°
2026-05-03 22:08 53.37948 -0.50995 23906 ft 419 kts 284°
2026-05-03 22:08 53.38728 -0.55700 23461 ft 418 kts 284°
2026-05-03 22:09 53.39503 -0.60386 22957 ft 416 kts 284°
2026-05-03 22:09 53.40271 -0.65034 22502 ft 410 kts 284°
2026-05-03 22:09 53.41026 -0.69619 22085 ft 403 kts 284°
2026-05-03 22:10 53.42500 -0.78611 21258 ft 398 kts 284°
2026-05-03 22:10 53.43224 -0.83049 20865 ft 404 kts 284°
2026-05-03 22:10 53.43963 -0.87596 20460 ft 416 kts 284°
2026-05-03 22:10 53.44731 -0.92334 20023 ft 419 kts 284°
2026-05-03 22:11 53.45490 -0.97017 19580 ft 415 kts 284°
2026-05-03 22:11 53.46242 -1.01664 19158 ft 410 kts 284°
2026-05-03 22:11 53.46975 -1.06212 18758 ft 407 kts 284°
2026-05-03 22:11 53.47711 -1.10793 18348 ft 404 kts 284°
2026-05-03 22:12 53.48440 -1.15338 17873 ft 401 kts 284°
2026-05-03 22:12 53.49159 -1.19845 17431 ft 399 kts 284°
2026-05-03 22:12 53.49872 -1.24321 17018 ft 396 kts 284°
2026-05-03 22:12 53.50580 -1.28775 16607 ft 394 kts 284°
2026-05-03 22:13 53.51283 -1.33213 16196 ft 392 kts 284°
2026-05-03 22:13 53.51983 -1.37642 15803 ft 390 kts 284°
2026-05-03 22:13 53.52676 -1.42038 15398 ft 389 kts 284°
2026-05-03 22:13 53.53366 -1.46425 15012 ft 385 kts 283°
2026-05-03 22:14 53.54035 -1.50689 14610 ft 369 kts 284°
2026-05-03 22:14 53.54673 -1.54758 14240 ft 351 kts 283°
2026-05-03 22:14 53.55280 -1.58645 13883 ft 337 kts 283°
2026-05-03 22:14 53.55861 -1.62374 13514 ft 324 kts 283°
2026-05-03 22:15 53.56421 -1.65979 13181 ft 314 kts 284°
2026-05-03 22:15 53.56959 -1.69450 12860 ft 306 kts 283°
2026-05-03 22:15 53.57488 -1.72874 12539 ft 299 kts 283°
2026-05-03 22:15 53.58010 -1.76256 12239 ft 297 kts 284°
2026-05-03 22:16 53.58524 -1.79604 11942 ft 301 kts 283°
2026-05-03 22:16 53.59050 -1.83025 11638 ft 301 kts 283°
2026-05-03 22:16 53.59569 -1.86407 11319 ft 295 kts 283°
2026-05-03 22:16 53.60075 -1.89713 11004 ft 288 kts 283°
2026-05-03 22:17 53.60569 -1.92949 10715 ft 283 kts 283°
2026-05-03 22:17 53.61058 -1.96155 10433 ft 280 kts 283°
2026-05-03 22:17 53.61540 -1.99329 10141 ft 281 kts 283°
2026-05-03 22:17 53.62026 -2.02527 9851 ft 281 kts 283°
2026-05-03 22:18 53.62512 -2.05732 9514 ft 281 kts 283°
2026-05-03 22:18 53.62992 -2.08909 9198 ft 279 kts 284°
2026-05-03 22:18 53.63469 -2.12070 8907 ft 277 kts 283°
2026-05-03 22:18 53.63942 -2.15211 8614 ft 275 kts 284°
2026-05-03 22:19 53.64284 -2.18315 8322 ft 272 kts 269°
2026-05-03 22:19 53.63845 -2.21369 8051 ft 269 kts 241°
2026-05-03 22:19 53.62773 -2.23921 7814 ft 265 kts 231°
2026-05-03 22:19 53.61606 -2.26317 7568 ft 263 kts 230°
2026-05-03 22:20 53.60434 -2.28679 7315 ft 264 kts 230°
2026-05-03 22:20 53.59254 -2.31048 7062 ft 264 kts 230°
2026-05-03 22:20 53.58071 -2.33417 6812 ft 265 kts 230°
2026-05-03 22:20 53.56885 -2.35788 6572 ft 265 kts 230°
2026-05-03 22:21 53.55723 -2.38112 6334 ft 264 kts 230°
2026-05-03 22:21 53.54552 -2.40451 6082 ft 264 kts 230°
2026-05-03 22:21 53.53386 -2.42779 6054 ft 257 kts 230°
2026-05-03 22:21 53.52240 -2.45067 6030 ft 255 kts 230°
2026-05-03 22:22 53.51095 -2.47350 6037 ft 256 kts 230°
2026-05-03 22:22 53.49932 -2.49670 5785 ft 264 kts 230°
2026-05-03 22:22 53.48767 -2.51989 5530 ft 265 kts 230°
2026-05-03 22:22 53.47584 -2.54343 5277 ft 262 kts 230°
2026-05-03 22:23 53.46357 -2.56586 5042 ft 259 kts 217°
2026-05-03 22:23 53.44751 -2.57827 4995 ft 253 kts 193°
2026-05-03 22:23 53.43614 -2.58254 4994 ft 252 kts 190°
2026-05-03 22:23 53.41892 -2.58833 4996 ft 252 kts 190°
2026-05-03 22:24 53.40171 -2.59389 4979 ft 254 kts 189°
2026-05-03 22:24 53.38399 -2.59963 4716 ft 263 kts 189°
2026-05-03 22:24 53.36633 -2.60536 4462 ft 261 kts 190°
2026-05-03 22:24 53.34867 -2.60714 4169 ft 257 kts 167°
2026-05-03 22:25 53.33284 -2.59541 4042 ft 245 kts 142°
2026-05-03 22:25 53.31920 -2.57873 4000 ft 237 kts 140°
2026-05-03 22:25 53.30654 -2.56289 4015 ft 223 kts 140°
2026-05-03 22:25 53.29421 -2.54731 3856 ft 222 kts 140°
2026-05-03 22:26 53.28190 -2.53180 3644 ft 221 kts 140°
2026-05-03 22:26 53.27082 -2.51532 3427 ft 208 kts 121°
2026-05-03 22:26 53.26674 -2.49366 3210 ft 192 kts 86°
2026-05-03 22:26 53.26811 -2.47245 3020 ft 185 kts 80°
2026-05-03 22:27 53.27031 -2.45092 2710 ft 183 kts 72°
2026-05-03 22:27 53.27719 -2.43374 2510 ft 176 kts 46°
2026-05-03 22:27 53.28470 -2.41814 2271 ft 170 kts 58°
2026-05-03 22:27 53.29157 -2.40259 2045 ft 164 kts 51°
2026-05-03 22:28 53.29861 -2.38864 1813 ft 151 kts 51°
2026-05-03 22:28 53.30498 -2.37559 1608 ft 139 kts 51°
2026-05-03 22:28 53.31091 -2.36332 1474 ft 138 kts 51°
2026-05-03 22:28 53.31692 -2.35094 1250 ft 137 kts 51°
2026-05-03 22:29 53.32281 -2.33875 1042 ft 133 kts 51°
2026-05-03 22:29 53.32876 -2.32647 852 ft 134 kts 50°
2026-05-03 22:29 53.33456 -2.31467 674 ft 135 kts 51°
2026-05-03 22:29 53.34051 -2.30236 468 ft 133 kts 51°
2026-05-03 22:30 53.34629 -2.29039 299 ft 131 kts 51°
2026-05-03 22:30 53.35190 -2.27877 245 ft 120 kts 51°
2026-05-03 22:30 53.35625 -2.26977 264 ft 78 kts 51°
2026-05-03 22:30 53.35838 -2.26535 264 ft 43 kts 51°
2026-05-03 22:31 53.36008 -2.26183 259 ft 24 kts 50°
2026-05-03 22:31 53.36086 -2.26182 258 ft 12 kts 322°
2026-05-03 22:31 53.36137 -2.26261 253 ft 9 kts 293°
2026-05-03 22:31 53.36122 -2.26360 251 ft 9 kts 230°
2026-05-03 22:32 53.36085 -2.26435 252 ft 0 kts 230°
2026-05-03 22:32 53.36081 -2.26442 252 ft 2 kts 231°
2026-05-03 22:33 53.36069 -2.26468 253 ft 5 kts 231°
2026-05-03 22:33 53.36032 -2.26544 253 ft 11 kts 231°
2026-05-03 22:33 53.35970 -2.26675 253 ft 17 kts 231°
2026-05-03 22:33 53.35911 -2.26809 253 ft 14 kts 240°
2026-05-03 22:34 53.35846 -2.26957 253 ft 17 kts 236°
2026-05-03 22:34 53.35779 -2.27126 251 ft 19 kts 230°
2026-05-03 22:34 53.35702 -2.27286 252 ft 17 kts 231°
2026-05-03 22:34 53.35628 -2.27438 252 ft 16 kts 234°
2026-05-03 22:35 53.35660 -2.27577 246 ft 15 kts 323°
2026-05-03 22:35 53.35754 -2.27654 246 ft 14 kts 341°
2026-05-03 22:35 53.35858 -2.27650 246 ft 16 kts
2026-05-03 22:35 53.35962 -2.27633 246 ft 15 kts
2026-05-03 22:36 53.36067 -2.27638 246 ft 16 kts 314°
2026-05-03 22:36 53.36101 -2.27825 246 ft 17 kts 284°
2026-05-03 22:36 53.36158 -2.27982 246 ft 17 kts 315°
2026-05-03 22:36 53.36243 -2.28126 246 ft 17 kts 315°
2026-05-03 22:37 53.36328 -2.28268 246 ft 18 kts 314°
2026-05-03 22:37 53.36403 -2.28419 246 ft 14 kts 297°
2026-05-03 22:37 53.36461 -2.28557 246 ft 15 kts 315°
2026-05-03 22:37 53.36536 -2.28684 246 ft 16 kts 314°
2026-05-03 22:38 53.36601 -2.28842 246 ft 17 kts 308°
2026-05-03 22:38 53.36672 -2.28917 246 ft 12 kts 320°
2026-05-03 22:38 53.36735 -2.29022 246 ft 14 kts 315°
2026-05-03 22:38 53.36817 -2.29013 246 ft 12 kts 28°
2026-05-03 22:39 53.36872 -2.28930 246 ft 11 kts 41°
2026-05-03 22:39 53.36890 -2.28880 246 ft 5 kts 98°
2026-05-03 22:39 53.36879 -2.28859 246 ft 3 kts 136°
2026-05-03 22:39 53.36871 -2.28845 246 ft 1 kts 135°
2026-05-03 22:40 53.36866 -2.28837 246 ft 0 kts 135°
2026-05-03 22:40 53.36865 -2.28836 246 ft 0 kts 135°